Location: Norton
(51.3000°N, 0.8167°E)
Time: 12:56:50
(UTC+00:00)

Terra - Pass Details

Date: 03 March 2021
Orbit: 701 x 703 km, 98.2° (Epoch: 17 April)

Event Time Altitude Azimuth Distance (km) Brightness Sun altitude
Exits shadow 21:21:34 21° 359° (N) 1,582 3.9 -33.5°
Drops below altitude 10° 21:23:09 10° 353° (N) 2,185 4.8 -33.7°
Sets 21:25:27 0° 349° (N) 3,108 5.8 -34.0°
